Location: Table Mountain
(47.2500°N, 120.5778°W)
Time: 12:43:04
(UTC-07:00)

Vanguard 3 - All Passes

Search period start: 21 July 2018 00:00
Search period end: 31 July 2018 00:00
Orbit: 508 x 3264 km, 33.3° (Epoch: 21 July)

Date Brightness Start Highest point End Pass type
(mag) Time Alt. Az. Time Alt. Az. Time Alt. Az.
21 Jul - 14:48:33 10° SSE 14:53:17 12° SE 14:57:39 10° SE daylight
21 Jul - 16:53:38 10° SSW 17:06:36 27° SSE 17:15:47 10° ESE daylight
21 Jul - 19:07:02 10° SW 19:19:39 36° S 19:27:26 10° ESE daylight
21 Jul - 21:22:37 10° WSW 21:31:29 29° SSW 21:37:08 10° SE visible
22 Jul - 15:39:32 10° S 15:51:32 22° SSE 16:00:58 10° ESE daylight
22 Jul - 17:50:52 10° SW 18:04:59 35° SSE 18:14:10 10° ESE daylight
22 Jul - 20:05:59 10° WSW 20:17:39 36° S 20:24:45 10° SE daylight
22 Jul - 22:22:22 10° WSW 22:28:41 20° SSW 22:33:11 10° SSE visible
23 Jul - 14:27:36 10° S 14:36:26 15° SE 14:44:13 10° ESE daylight
23 Jul - 16:35:19 10° SSW 16:49:56 31° SSE 17:00:18 10° ESE daylight
23 Jul - 18:49:20 10° WSW 19:03:17 40° S 19:11:54 10° ESE daylight
23 Jul - 21:05:25 10° WSW 21:15:18 30° SSW 21:21:32 10° SE visible
24 Jul - 15:20:50 10° SSW 15:34:41 26° SSE 15:45:35 10° ESE daylight
24 Jul - 17:32:56 10° SW 17:48:24 39° S 17:58:33 10° ESE daylight
24 Jul - 19:48:29 10° WSW 20:01:20 39° SSW 20:09:09 10° SE daylight
24 Jul - 22:05:26 10° WSW 22:12:28 20° SW 22:17:26 10° S visible
25 Jul - 14:08:06 10° S 14:19:27 19° SE 14:29:23 10° ESE daylight
25 Jul - 16:17:11 10° SW 16:33:09 35° SSE 16:44:38 10° ESE daylight
25 Jul - 18:31:38 10° WSW 18:46:47 43° S 18:56:14 10° ESE daylight
25 Jul - 20:48:08 10° WSW 20:59:00 31° SSW 21:05:52 10° SE daylight
26 Jul - 12:59:52 10° SSE 13:04:25 11° SE 13:08:50 10° ESE daylight
26 Jul - 15:02:29 10° SSW 15:17:42 30° SSE 15:29:55 10° E daylight
26 Jul - 17:15:06 10° SW 17:31:42 43° S 17:42:49 10° ESE daylight
26 Jul - 19:30:59 10° WSW 19:44:55 40° SSW 19:53:28 10° SE daylight
26 Jul - 21:48:25 10° WSW 21:56:08 20° SW 22:01:35 10° S visible
27 Jul - 13:49:18 10° S 14:02:19 22° SE 14:13:56 10° ESE daylight
27 Jul - 15:59:15 10° SW 16:16:13 39° SSE 16:28:48 10° E daylight
27 Jul - 18:13:59 10° WSW 18:30:10 45° S 18:40:30 10° ESE daylight
27 Jul - 20:30:47 10° W 20:42:35 32° SSW 20:50:07 10° SSE daylight
28 Jul - 12:39:00 10° SSE 12:47:14 14° SE 12:55:14 10° ESE daylight
28 Jul - 14:44:25 10° SSW 15:00:35 33° SSE 15:14:01 10° E daylight
28 Jul - 16:57:22 10° WSW 17:14:52 46° S 17:26:57 10° ESE daylight
28 Jul - 19:13:27 10° WSW 19:28:21 41° SSW 19:37:42 10° SE daylight
28 Jul - 21:31:21 10° W 21:39:40 20° SW 21:45:37 10° S visible
29 Jul - 13:30:59 10° S 13:45:05 25° SE 13:58:07 10° E daylight
29 Jul - 15:41:29 10° SW 15:59:11 42° SSE 16:12:49 10° E daylight
29 Jul - 17:56:22 10° WSW 18:13:26 47° S 18:24:38 10° ESE daylight
29 Jul - 20:13:24 10° W 20:26:02 32° SSW 20:34:14 10° SSE daylight
30 Jul - 12:19:47 10° SSE 12:29:57 17° SE 12:40:06 10° ESE daylight
30 Jul - 14:26:37 10° SSW 14:43:22 36° SSE 14:57:55 10° E daylight
30 Jul - 16:39:47 10° WSW 16:57:55 48° S 17:10:58 10° ESE daylight
30 Jul - 18:55:56 10° W 19:11:39 42° SSW 19:21:49 10° SE daylight
30 Jul - 21:14:14 10° W 21:23:06 20° SW 21:29:31 10° S visible
